Weather History for Peru, IN

Change the Weather History Date:

Wednesday, November 28, 2012

  Actual Average Record
Temperature  
Mean Temperature 32 °F -  
Max Temperature 41 °F 43 °F 64 °F (1998)
Min Temperature 23 °F 30 °F 18 °F (2013)
Degree Days  
Heating Degree Days 33    
Moisture  
Dew Point 22 °F    
Average Humidity 73    
Maximum Humidity 88    
Minimum Humidity 49    
Precipitation  
Precipitation 0.00 in - - ()
Sea Level Pressure  
Sea Level Pressure 30.36 in    
Wind  
Wind Speed 8 mph (WSW)    
Max Wind Speed 13 mph    
Max Gust Speed -    
Visibility 10 miles    
Events      
Averages and records for this station are not official NWS values.
T = Trace of Precipitation, MM = Missing Value Source: NWS Daily Summary

Daily Weather History Graph

Daily Weather History Graph

Search for Another Location

Airport:

Trip Planner

Search our weather history database for the weather conditions in past years. The results will help you decide how hot, cold, wet, or windy it might be!

Date:

Astronomy

Nov. 28, 2012 Rise Set
Actual Time 7:46 AM EST 5:18 PM EST
Civil Twilight 7:16 AM EST 5:49 PM EST
Nautical Twilight 6:42 AM EST 6:22 PM EST
Astronomical Twilight 6:09 AM EST 6:55 PM EST
Moon 5:33 PM EST (11/28) 7:43 AM EST (11/28)
Length of Visible Light 10h 32m
Length of Day
9h 32m
Full, 100% of the Moon is Illuminated
Nov 28
Full
Dec 6
Last Quarter
Dec 13
New
Dec 20
First Quarter
Dec 28
Full

Hourly Weather History & Observations

Time (EST) Temp. Windchill Dew Point Humidity Pressure Visibility Wind Dir Wind Speed Gust Speed Precip Events Conditions
12:55 AM 23.7 °F 15.6 °F 20.7 °F 88% 30.31 in 10.0 mi WSW 6.9 mph - N/A   Scattered Clouds
1:55 AM 25.0 °F 18.1 °F 20.3 °F 82% 30.30 in 10.0 mi WSW 5.8 mph - N/A   Overcast
2:55 AM 26.1 °F 18.4 °F 19.9 °F 78% 30.31 in 10.0 mi West 6.9 mph - N/A   Scattered Clouds
3:55 AM 25.5 °F 16.2 °F 19.8 °F 79% 30.31 in 10.0 mi WSW 9.2 mph - N/A   Clear
4:55 AM 27.3 °F 18.4 °F 21.4 °F 78% 30.31 in 10.0 mi WSW 9.2 mph - N/A   Overcast
5:55 AM 27.5 °F 18.0 °F 21.4 °F 78% 30.32 in 10.0 mi WSW 10.4 mph - N/A   Overcast
6:55 AM 28.6 °F 19.3 °F 22.3 °F 77% 30.33 in 10.0 mi WSW 10.4 mph - N/A   Overcast
7:55 AM 24.3 °F 16.3 °F 20.3 °F 85% 30.36 in 10.0 mi West 6.9 mph - N/A   Partly Cloudy
8:55 AM 27.1 °F 20.7 °F 22.6 °F 83% 30.38 in 10.0 mi West 5.8 mph - N/A   Clear
9:55 AM 31.3 °F 22.7 °F 22.3 °F 69% 30.40 in 10.0 mi West 10.4 mph - N/A   Clear
10:29 AM 32.0 °F 24.2 °F 23.0 °F 69% 30.36 in 10.0 mi WNW 9.2 mph - N/A   Clear
10:55 AM 34.0 °F 27.2 °F 22.1 °F 62% 30.41 in 10.0 mi WNW 8.1 mph - N/A   Clear
11:55 AM 36.9 °F 32.2 °F 22.6 °F 56% 30.41 in 10.0 mi WSW 5.8 mph - N/A   Clear
12:55 PM 39.0 °F 33.4 °F 22.8 °F 52% 30.39 in 10.0 mi WSW 8.1 mph - N/A   Clear
1:55 PM 41.2 °F 34.5 °F 24.1 °F 51% 30.38 in 10.0 mi West 11.5 mph - N/A   Clear
2:55 PM 41.9 °F 35.0 °F 24.1 °F 49% 30.37 in 10.0 mi West 12.7 mph - N/A   Clear
3:55 PM 41.9 °F 35.4 °F 24.1 °F 49% 30.36 in 10.0 mi WSW 11.5 mph - N/A   Clear
4:55 PM 39.6 °F 34.0 °F 24.6 °F 55% 30.36 in 10.0 mi WSW 8.1 mph - N/A   Clear
5:55 PM 30.4 °F 22.2 °F 23.9 °F 77% 30.38 in 10.0 mi SW 9.2 mph - N/A   Clear
6:55 PM 28.8 °F 21.7 °F 23.0 °F 79% 30.38 in 10.0 mi SW 6.9 mph - N/A   Clear
7:55 PM 28.6 °F 20.7 °F 23.2 °F 80% 30.38 in 10.0 mi SSW 8.1 mph - N/A   Clear
8:55 PM 27.3 °F 19.1 °F 23.0 °F 84% 30.38 in 10.0 mi SSW 8.1 mph - N/A   Clear
9:55 PM 26.6 °F 18.2 °F 22.5 °F 84% 30.38 in 10.0 mi SSW 8.1 mph - N/A   Clear
10:55 PM 26.4 °F 17.3 °F 22.8 °F 86% 30.37 in 10.0 mi SSW 9.2 mph - N/A   Clear
11:55 PM 27.7 °F 19.6 °F 23.0 °F 83% 30.37 in 10.0 mi SSW 8.1 mph - N/A   Clear